When you browse on this site, cookies collect data to enhance your experience and personalize the content and advertising you see.
Visit our Privacy Policy to learn more. By continuing to use the site, you agree to this use of cookies and data.
  • In Österreich
  • Länderverzeichnis
  • Für 7 Tage
  • Wassertemperatur
  • Satellitenkarten
  • Wetterkarte
  • News
  • Widgets
  • user-avatar
    Anmelden

    Stündliche Wetter Roraima

    Heute, 26 Mai, Sonntag

    Zeit Temperatur Niederschläge Wind Luftdruck Luftfeuchtigkeit
    00:00 +23°C° 0 mm 0 m/S 737 mmHg 89%
    01:00 +23°C° 0 mm 0 m/S 737 mmHg 90%
    02:00 +22°C° 0 mm 0 m/S 737 mmHg 91%
    03:00 +22°C° 0.3 mm 0 m/S 736 mmHg 93%
    04:00 +22°C° 0.3 mm 0 m/S 736 mmHg 95%
    05:00 +22°C° 0.3 mm 0 m/S 736 mmHg 97%
    06:00 +23°C° 0.2 mm 0 m/S 737 mmHg 94%
    07:00 +24°C° 0.2 mm 0 m/S 737 mmHg 92%
    08:00 +25°C° 0.2 mm 0 m/S 738 mmHg 89%
    09:00 +26°C° 0.9 mm 0 m/S 738 mmHg 85%
    10:00 +29°C° 0.9 mm 1 m/S 738 mmHg 81%
    11:00 +30°C° 0.9 mm 1 m/S 738 mmHg 78%
    12:00 +31°C° 0.8 mm 1 m/S 737 mmHg 78%
    13:00 +31°C° 0.8 mm 1 m/S 736 mmHg 78%
    14:00 +31°C° 0.8 mm 1 m/S 735 mmHg 79%
    15:00 +31°C° 0.4 mm 1 m/S 735 mmHg 78%
    16:00 +30°C° 0.4 mm 1 m/S 735 mmHg 77%
    17:00 +30°C° 0.4 mm 1 m/S 734 mmHg 77%
    18:00 +26°C° 0.1 mm 0 m/S 735 mmHg 81%
    19:00 +25°C° 0.1 mm 0 m/S 735 mmHg 85%
    20:00 +24°C° 0.1 mm 0 m/S 735 mmHg 89%
    21:00 +23°C° 0.7 mm 0 m/S 736 mmHg 90%
    22:00 +23°C° 0.7 mm 0 m/S 736 mmHg 91%
    23:00 +22°C° 0.7 mm 0 m/S 737 mmHg 93%

    Morgen, 27 Mai, Montag

    Zeit Temperatur Niederschläge Wind Luftdruck Luftfeuchtigkeit
    00:00 +22°C° 0.9 mm 0 m/S 736 mmHg 94%
    01:00 +22°C° 0.9 mm 0 m/S 736 mmHg 96%
    02:00 +22°C° 0.9 mm 0 m/S 736 mmHg 97%
    03:00 +22°C° 0.2 mm 0 m/S 736 mmHg 97%
    04:00 +21°C° 0.2 mm 0 m/S 736 mmHg 98%
    05:00 +21°C° 0.2 mm 0 m/S 736 mmHg 98%
    06:00 +22°C° 0 mm 0 m/S 737 mmHg 95%
    07:00 +24°C° 0 mm 0 m/S 737 mmHg 92%
    08:00 +25°C° 0 mm 0 m/S 738 mmHg 89%
    09:00 +26°C° 0.4 mm 0 m/S 738 mmHg 83%
    10:00 +29°C° 0.4 mm 1 m/S 738 mmHg 78%
    11:00 +31°C° 0.4 mm 1 m/S 738 mmHg 72%
    12:00 +31°C° 0.6 mm 1 m/S 737 mmHg 69%
    13:00 +32°C° 0.6 mm 1 m/S 736 mmHg 66%
    14:00 +33°C° 0.6 mm 1 m/S 735 mmHg 62%
    15:00 +33°C° 0.1 mm 1 m/S 735 mmHg 61%
    16:00 +33°C° 0.1 mm 1 m/S 734 mmHg 60%
    17:00 +31°C° 0.1 mm 0 m/S 734 mmHg 59%
    18:00 +29°C° 0.1 mm 0 m/S 734 mmHg 67%
    19:00 +27°C° 0.1 mm 0 m/S 735 mmHg 75%
    20:00 +25°C° 0.1 mm 0 m/S 735 mmHg 83%
    21:00 +26°C° 0.3 mm 1 m/S 736 mmHg 86%
    22:00 +26°C° 0.3 mm 1 m/S 736 mmHg 89%
    23:00 +25°C° 0.3 mm 1 m/S 737 mmHg 91%

    übermorgen, 28 Mai, Dienstag

    Zeit Temperatur Niederschläge Wind Luftdruck Luftfeuchtigkeit
    00:00 +25°C° 0.3 mm 1 m/S 736 mmHg 94%
    01:00 +23°C° 0.3 mm 0 m/S 736 mmHg 96%
    02:00 +22°C° 0.3 mm 0 m/S 735 mmHg 98%
    03:00 +22°C° 0.8 mm 0 m/S 735 mmHg 98%
    04:00 +22°C° 0.8 mm 0 m/S 735 mmHg 98%
    05:00 +22°C° 0.8 mm 0 m/S 735 mmHg 98%
    06:00 +22°C° 0.7 mm 0 m/S 736 mmHg 98%
    07:00 +23°C° 0.7 mm 0 m/S 737 mmHg 97%
    08:00 +24°C° 0.7 mm 0 m/S 737 mmHg 96%
    09:00 +24°C° 1.2 mm 0 m/S 737 mmHg 95%
    10:00 +27°C° 1.2 mm 1 m/S 737 mmHg 94%
    11:00 +28°C° 1.2 mm 1 m/S 738 mmHg 93%
    12:00 +28°C° 0.8 mm 1 m/S 737 mmHg 91%
    13:00 +29°C° 0.8 mm 1 m/S 736 mmHg 89%
    14:00 +29°C° 0.8 mm 1 m/S 735 mmHg 87%
    15:00 +29°C° 0.3 mm 1 m/S 735 mmHg 84%
    16:00 +27°C° 0.3 mm 0 m/S 734 mmHg 81%
    17:00 +28°C° 0.3 mm 0 m/S 734 mmHg 78%
    18:00 +26°C° 0.2 mm 0 m/S 735 mmHg 83%
    19:00 +25°C° 0.2 mm 0 m/S 735 mmHg 88%
    20:00 +23°C° 0.2 mm 0 m/S 735 mmHg 94%
    21:00 +23°C° 0.9 mm 0 m/S 736 mmHg 94%
    22:00 +23°C° 0.9 mm 0 m/S 736 mmHg 95%
    23:00 +23°C° 0.9 mm 0 m/S 737 mmHg 95%

    29 Mai, Mittwoch

    Zeit Temperatur Niederschläge Wind Luftdruck Luftfeuchtigkeit
    00:00 +23°C° 1.7 mm 0 m/S 736 mmHg 97%
    01:00 +22°C° 1.7 mm 0 m/S 736 mmHg 98%
    02:00 +22°C° 1.7 mm 0 m/S 735 mmHg 99%
    03:00 +22°C° 0.2 mm 0 m/S 735 mmHg 99%
    04:00 +22°C° 0.2 mm 0 m/S 735 mmHg 99%
    05:00 +22°C° 0.2 mm 0 m/S 735 mmHg 99%
    06:00 +22°C° 0.1 mm 0 m/S 736 mmHg 98%
    07:00 +23°C° 0.1 mm 0 m/S 737 mmHg 96%
    08:00 +24°C° 0.1 mm 0 m/S 737 mmHg 95%
    09:00 +27°C° 1 mm 1 m/S 737 mmHg 93%
    10:00 +28°C° 1 mm 1 m/S 737 mmHg 91%
    11:00 +29°C° 1 mm 1 m/S 737 mmHg 89%
    12:00 +29°C° 1 mm 1 m/S 736 mmHg 91%
    13:00 +29°C° 1 mm 1 m/S 736 mmHg 93%
    14:00 +29°C° 1 mm 1 m/S 735 mmHg 94%
    15:00 +28°C° 0.5 mm 1 m/S 734 mmHg 94%
    16:00 +28°C° 0.5 mm 1 m/S 734 mmHg 93%
    17:00 +28°C° 0.5 mm 1 m/S 734 mmHg 92%
    18:00 +27°C° 0.3 mm 1 m/S 735 mmHg 94%
    19:00 +26°C° 0.3 mm 1 m/S 735 mmHg 96%
    20:00 +23°C° 0.3 mm 0 m/S 736 mmHg 99%
    21:00 +23°C° 0.7 mm 0 m/S 736 mmHg 99%
    22:00 +23°C° 0.7 mm 0 m/S 736 mmHg 99%
    23:00 +23°C° 0.7 mm 0 m/S 737 mmHg 99%

    30 Mai, Donnerstag

    Zeit Temperatur Niederschläge Wind Luftdruck Luftfeuchtigkeit
    00:00 +23°C° 1.7 mm 0 m/S 736 mmHg 99%
    01:00 +23°C° 1.7 mm 0 m/S 736 mmHg 99%
    02:00 +22°C° 1.7 mm 0 m/S 735 mmHg 99%
    03:00 +22°C° 0.7 mm 0 m/S 735 mmHg 99%
    04:00 +22°C° 0.7 mm 0 m/S 735 mmHg 99%
    05:00 +22°C° 0.7 mm 0 m/S 736 mmHg 98%
    06:00 +23°C° 1 mm 0 m/S 736 mmHg 98%
    07:00 +25°C° 1 mm 1 m/S 737 mmHg 98%
    08:00 +26°C° 1 mm 1 m/S 737 mmHg 97%
    09:00 +27°C° 0.9 mm 1 m/S 737 mmHg 95%
    10:00 +27°C° 0.9 mm 1 m/S 737 mmHg 92%
    11:00 +28°C° 0.9 mm 1 m/S 737 mmHg 90%
    12:00 +29°C° 0.8 mm 1 m/S 736 mmHg 86%
    13:00 +30°C° 0.8 mm 1 m/S 735 mmHg 81%
    14:00 +30°C° 0.8 mm 1 m/S 734 mmHg 77%
    15:00 +30°C° 1.7 mm 1 m/S 734 mmHg 83%
    16:00 +27°C° 1.7 mm 0 m/S 734 mmHg 90%
    17:00 +26°C° 1.7 mm 0 m/S 733 mmHg 96%
    18:00 +25°C° 1.2 mm 0 m/S 734 mmHg 96%
    19:00 +24°C° 1.2 mm 0 m/S 735 mmHg 97%
    20:00 +25°C° 1.2 mm 1 m/S 735 mmHg 97%
    21:00 +25°C° 2 mm 1 m/S 736 mmHg 98%
    22:00 +25°C° 2 mm 1 m/S 736 mmHg 98%
    23:00 +25°C° 2 mm 1 m/S 736 mmHg 99%

    31 Mai, Freitag

    Zeit Temperatur Niederschläge Wind Luftdruck Luftfeuchtigkeit
    00:00 +23°C° 0.8 mm 0 m/S 736 mmHg 99%
    01:00 +22°C° 0.8 mm 0 m/S 735 mmHg 99%
    02:00 +22°C° 0.8 mm 0 m/S 735 mmHg 99%
    03:00 +22°C° 0.1 mm 0 m/S 735 mmHg 99%
    04:00 +22°C° 0.1 mm 0 m/S 735 mmHg 99%
    05:00 +22°C° 0.1 mm 0 m/S 735 mmHg 99%
    06:00 +22°C° 0.1 mm 0 m/S 736 mmHg 98%
    07:00 +23°C° 0.1 mm 0 m/S 737 mmHg 98%
    08:00 +23°C° 0.1 mm 0 m/S 737 mmHg 98%
    09:00 +24°C° 0.8 mm 0 m/S 737 mmHg 96%
    10:00 +25°C° 0.8 mm 0 m/S 737 mmHg 94%
    11:00 +26°C° 0.8 mm 0 m/S 736 mmHg 92%
    12:00 +26°C° 0.9 mm 0 m/S 736 mmHg 92%
    13:00 +26°C° 0.9 mm 0 m/S 735 mmHg 92%
    14:00 +29°C° 0.9 mm 1 m/S 734 mmHg 92%
    15:00 +29°C° 0.8 mm 1 m/S 734 mmHg 92%
    16:00 +28°C° 0.8 mm 1 m/S 734 mmHg 92%
    17:00 +28°C° 0.8 mm 1 m/S 734 mmHg 92%
    18:00 +27°C° 1 mm 1 m/S 734 mmHg 94%
    19:00 +24°C° 1 mm 0 m/S 735 mmHg 96%
    20:00 +23°C° 1 mm 0 m/S 735 mmHg 99%
    21:00 +23°C° 0 mm 0 m/S 735 mmHg 99%
    22:00 +22°C° 0 mm 0 m/S 736 mmHg 99%
    23:00 +22°C° 0 mm 0 m/S 736 mmHg 99%
    Mehr zeigen